Killeen/Ft Hood, TX

11:54 AM CDT on March 28, 2017 (GMT -0500)
Hood Army Air Field

Weather History for KHLR - September, 2014

Change the Weather History Date:

Sunday, September 21, 2014

  Actual Average Record
Temperature  
Mean Temperature 83 °F -  
Max Temperature 93 °F 85 °F 98 °F (1998)
Min Temperature 73 °F 65 °F 62 °F (1999)
Cooling Degree Days 18    
Growing Degree Days 33 (Base 50)    
Moisture  
Dew Point 67 °F    
Average Humidity 64    
Maximum Humidity 87    
Minimum Humidity 37    
Precipitation  
Precipitation 0.00 in - - ()
Sea Level Pressure  
Sea Level Pressure 30.08 in    
Wind  
Wind Speed 1 mph (ENE)    
Max Wind Speed 8 mph    
Max Gust Speed -    
Visibility 10 miles    
Events      
Averages and records for this station are not official NWS values.
T = Trace of Precipitation, MM = Missing Value Source: NWS Daily Summary

Daily Weather History Graph

Daily Weather History Graph

Search for Another Location

Airport or City:

Trip Planner

Search our weather history database for the weather conditions in past years. The results will help you decide how hot, cold, wet, or windy it might be!

Date:

Astronomy

Sep. 21, 2014 Rise Set
Actual Time 7:18 AM CDT 7:28 PM CDT
Civil Twilight 6:54 AM CDT 7:52 PM CDT
Nautical Twilight 6:26 AM CDT 8:21 PM CDT
Astronomical Twilight 5:57 AM CDT 8:49 PM CDT
Moon 5:00 AM CDT (9/21) 5:59 PM CDT (9/21)
Length of Visible Light 12h 58m
Length of Day
12h 10m
Waning Crescent, 6% of the Moon is Illuminated
Sep 21
Waning Crescent
Sep 24
New
Oct 1
First Quarter
Oct 8
Full
Oct 15
Last Quarter

Hourly Weather History & Observations

Time (CDT) Temp. Heat Index Dew Point Humidity Pressure Visibility Wind Dir Wind Speed Gust Speed Precip Events Conditions
12:56 AM 75.9 °F - 68.0 °F 76% 30.01 in 10.0 mi Calm Calm - N/A   Clear
1:56 AM 75.0 °F - 68.0 °F 79% 30.02 in 10.0 mi Calm Calm - N/A   Scattered Clouds
2:56 AM 75.0 °F - 69.1 °F 82% 30.02 in 10.0 mi SE 3.5 mph - N/A   Scattered Clouds
3:56 AM 73.9 °F - 69.1 °F 85% 30.08 in 10.0 mi Calm Calm - N/A   Clear
4:56 AM 73.0 °F - 69.1 °F 87% 30.03 in 10.0 mi Calm Calm - N/A   Partly Cloudy
5:56 AM 73.0 °F - 69.1 °F 87% 30.04 in 10.0 mi Calm Calm - N/A   Mostly Cloudy
6:56 AM 73.9 °F - 70.0 °F 87% 30.12 in 10.0 mi Calm Calm - N/A   Scattered Clouds
7:56 AM 75.0 °F - 71.1 °F 87% 30.15 in 10.0 mi Calm Calm - N/A   Mostly Cloudy
8:56 AM 79.0 °F - 71.1 °F 77% 30.17 in 10.0 mi Calm Calm - N/A   Clear
9:56 AM 82.9 °F 87.5 °F 71.1 °F 67% 30.17 in 10.0 mi Calm Calm - N/A   Clear
10:56 AM 84.9 °F 89.4 °F 70.0 °F 61% 30.18 in 10.0 mi NE 4.6 mph - N/A   Scattered Clouds
11:56 AM 86.0 °F 90.7 °F 70.0 °F 59% 30.17 in 10.0 mi Calm Calm - N/A   Scattered Clouds
12:56 PM 90.0 °F 92.8 °F 66.9 °F 46% 30.15 in 10.0 mi Variable 3.5 mph - N/A   Clear
1:56 PM 93.0 °F 97.4 °F 68.0 °F 44% 30.12 in 10.0 mi Variable 5.8 mph - N/A   Scattered Clouds
2:56 PM 93.9 °F 97.0 °F 66.0 °F 40% 30.04 in 10.0 mi NE 6.9 mph - N/A   Mostly Cloudy
3:56 PM 91.9 °F 93.3 °F 64.0 °F 39% 30.03 in 10.0 mi NNE 8.1 mph - N/A   Partly Cloudy
4:56 PM 93.0 °F 94.2 °F 63.0 °F 37% 30.02 in 10.0 mi NE 6.9 mph - N/A   Partly Cloudy
5:56 PM 89.1 °F 89.3 °F 62.1 °F 40% 30.02 in 10.0 mi ENE 4.6 mph - N/A   Clear
6:56 PM 87.1 °F 87.8 °F 63.0 °F 44% 30.02 in 10.0 mi East 3.5 mph - N/A   Clear
7:56 PM 84.0 °F 84.9 °F 63.0 °F 49% 30.04 in 10.0 mi Calm Calm - N/A   Clear
8:56 PM 82.0 °F 83.4 °F 64.0 °F 54% 30.07 in 10.0 mi Calm Calm - N/A   Clear
9:56 PM 80.1 °F 81.9 °F 64.9 °F 60% 30.08 in 10.0 mi Calm Calm - N/A   Clear
10:56 PM 77.0 °F - 66.0 °F 69% 30.09 in 10.0 mi Calm Calm - N/A   Clear
11:56 PM 75.0 °F - 66.0 °F 73% 30.10 in 10.0 mi Calm Calm - N/A   Clear